Time,TemperatureF,DewpointF,PressureIn,WindDirection,WindDirectionDegrees,WindSpeedMPH,WindSpeedGustMPH,Humidity,HourlyPrecipIn,Conditions,Clouds,dailyrainin,SoftwareType,DateUTC
2013-02-24 00:00:00,42.5,38.9,29.82,West,272,2.0,5.0,87,0.01,,---,0.06,VWS V14.01,2013-02-24 05:00:00,
2013-02-24 00:05:00,42.8,38.0,29.83,West,275,2.0,2.0,83,0.01,,---,0.00,VWS V14.01,2013-02-24 05:05:00,
2013-02-24 00:10:00,43.2,37.5,29.83,West,278,0.0,2.0,80,0.01,,---,0.00,VWS V14.01,2013-02-24 05:10:00,
2013-02-24 00:15:00,43.5,36.8,29.83,West,279,0.0,5.0,77,0.00,,---,0.00,VWS V14.01,2013-02-24 05:15:00,
2013-02-24 00:20:00,43.8,37.1,29.82,West,279,0.0,5.0,77,0.00,,---,0.00,VWS V14.01,2013-02-24 05:20:00,
2013-02-24 00:25:00,43.9,36.8,29.82,West,279,0.0,0.0,76,0.00,,---,0.00,VWS V14.01,2013-02-24 05:25:00,
2013-02-24 00:30:00,43.8,37.1,29.82,NW,312,0.0,6.0,77,0.00,,---,0.00,VWS V14.01,2013-02-24 05:30:00,
2013-02-24 00:35:00,43.6,37.2,29.82,NW,312,0.0,0.0,78,0.00,,---,0.00,VWS V14.01,2013-02-24 05:35:00,
2013-02-24 00:40:00,43.3,36.9,29.82,NW,312,0.0,0.0,78,0.00,,---,0.00,VWS V14.01,2013-02-24 05:40:00,
2013-02-24 00:45:00,43.3,36.9,29.82,WNW,303,0.0,0.0,78,0.00,,---,0.00,VWS V14.01,2013-02-24 05:45:00,
2013-02-24 00:50:00,43.3,37.2,29.82,WNW,303,0.0,1.0,79,0.00,,---,0.00,VWS V14.01,2013-02-24 05:50:00,
2013-02-24 00:55:00,43.3,37.2,29.82,WSW,255,0.0,2.0,79,0.00,,---,0.00,VWS V14.01,2013-02-24 05:55:00,
2013-02-24 01:00:00,43.3,37.2,29.82,WSW,255,0.0,2.0,79,0.00,,---,0.00,VWS V14.01,2013-02-24 06:00:00,
2013-02-24 01:05:00,43.3,37.6,29.83,NW,313,5.0,6.0,80,0.00,,---,0.00,VWS V14.01,2013-02-24 06:05:00,
2013-02-24 01:10:00,43.8,37.7,29.83,WNW,290,0.0,6.0,79,0.00,,---,0.00,VWS V14.01,2013-02-24 06:10:00,
2013-02-24 01:15:00,44.1,37.7,29.83,WNW,292,0.0,2.0,78,0.00,,---,0.00,VWS V14.01,2013-02-24 06:15:00,
2013-02-24 01:20:00,44.2,37.8,29.82,WSW,241,0.0,5.0,78,0.00,,---,0.00,VWS V14.01,2013-02-24 06:20:00,
2013-02-24 01:25:00,44.5,37.8,29.82,NW,326,0.0,10.0,77,0.00,,---,0.00,VWS V14.01,2013-02-24 06:25:00,
2013-02-24 01:30:00,44.8,37.7,29.82,WNW,282,0.0,10.0,76,0.00,,---,0.00,VWS V14.01,2013-02-24 06:30:00,
2013-02-24 01:35:00,44.9,37.8,29.81,WNW,300,0.0,0.0,76,0.00,,---,0.00,VWS V14.01,2013-02-24 06:35:00,
2013-02-24 01:40:00,44.8,37.4,29.81,WNW,300,1.0,1.0,75,0.00,,---,0.00,VWS V14.01,2013-02-24 06:40:00,
2013-02-24 01:45:00,44.8,37.4,29.81,WNW,300,0.0,0.0,75,0.00,,---,0.00,VWS V14.01,2013-02-24 06:45:00,
2013-02-24 01:50:00,44.5,37.4,29.81,WNW,300,0.0,1.0,76,0.00,,---,0.00,VWS V14.01,2013-02-24 06:50:00,
2013-02-24 01:55:00,44.2,37.1,29.81,WNW,296,0.0,1.0,76,0.00,,---,0.00,VWS V14.01,2013-02-24 06:55:00,
2013-02-24 02:00:00,43.9,37.2,29.81,WNW,283,2.0,5.0,77,0.00,,---,0.00,VWS V14.01,2013-02-24 07:00:00,
2013-02-24 02:05:00,44.1,37.4,29.81,West,261,0.0,5.0,77,0.00,,---,0.00,VWS V14.01,2013-02-24 07:05:00,
2013-02-24 02:10:00,44.1,37.4,29.81,SSW,192,0.0,7.0,77,0.00,,---,0.00,VWS V14.01,2013-02-24 07:10:00,
2013-02-24 02:15:00,43.9,37.2,29.81,SW,223,1.0,7.0,77,0.00,,---,0.00,VWS V14.01,2013-02-24 07:15:00,
2013-02-24 02:20:00,43.9,37.2,29.79,WSW,251,2.0,7.0,77,0.00,,---,0.00,VWS V14.01,2013-02-24 07:20:00,
2013-02-24 02:25:00,43.9,37.2,29.79,West,276,6.0,7.0,77,0.00,,---,0.00,VWS V14.01,2013-02-24 07:25:00,
2013-02-24 02:30:00,44.1,37.4,29.79,WNW,288,9.0,12.0,77,0.00,,---,0.00,VWS V14.01,2013-02-24 07:30:00,
2013-02-24 02:35:00,44.1,37.4,29.80,West,281,6.0,7.0,77,0.00,,---,0.00,VWS V14.01,2013-02-24 07:35:00,
2013-02-24 02:40:00,44.2,37.5,29.80,WNW,288,2.0,10.0,77,0.00,,---,0.00,VWS V14.01,2013-02-24 07:40:00,
2013-02-24 02:45:00,44.2,37.1,29.80,WNW,293,0.0,12.0,76,0.00,,---,0.00,VWS V14.01,2013-02-24 07:45:00,
2013-02-24 02:50:00,44.2,37.5,29.80,NW,313,0.0,12.0,77,0.00,,---,0.00,VWS V14.01,2013-02-24 07:50:00,
2013-02-24 02:55:00,44.1,37.4,29.80,West,281,2.0,8.0,77,0.00,,---,0.00,VWS V14.01,2013-02-24 07:55:00,
2013-02-24 03:00:00,44.1,37.4,29.80,WNW,303,0.0,8.0,77,0.00,,---,0.00,VWS V14.01,2013-02-24 08:00:00,
2013-02-24 03:05:00,43.9,37.2,29.80,West,272,7.0,8.0,77,0.00,,---,0.00,VWS V14.01,2013-02-24 08:05:00,
2013-02-24 03:10:00,43.9,36.8,29.80,WNW,282,7.0,8.0,76,0.00,,---,0.00,VWS V14.01,2013-02-24 08:10:00,
2013-02-24 03:15:00,43.8,36.7,29.80,NW,323,4.0,6.0,76,0.00,,---,0.00,VWS V14.01,2013-02-24 08:15:00,
2013-02-24 03:20:00,43.8,36.7,29.81,WNW,288,2.0,7.0,76,0.00,,---,0.00,VWS V14.01,2013-02-24 08:20:00,
2013-02-24 03:25:00,43.6,36.5,29.81,West,274,0.0,8.0,76,0.00,,---,0.00,VWS V14.01,2013-02-24 08:25:00,
2013-02-24 03:30:00,43.5,36.8,29.81,WNW,295,0.0,8.0,77,0.00,,---,0.00,VWS V14.01,2013-02-24 08:30:00,
2013-02-24 03:35:00,43.3,36.6,29.81,WNW,288,3.0,4.0,77,0.00,,---,0.00,VWS V14.01,2013-02-24 08:35:00,
2013-02-24 03:40:00,43.3,36.6,29.81,West,275,5.0,7.0,77,0.00,,---,0.00,VWS V14.01,2013-02-24 08:40:00,
2013-02-24 03:45:00,43.2,36.5,29.81,WNW,299,0.0,3.0,77,0.00,,---,0.00,VWS V14.01,2013-02-24 08:45:00,
2013-02-24 03:50:00,42.9,36.2,29.81,NW,313,5.0,5.0,77,0.00,,---,0.00,VWS V14.01,2013-02-24 08:50:00,
2013-02-24 03:55:00,42.9,36.2,29.81,WNW,300,2.0,5.0,77,0.00,,---,0.00,VWS V14.01,2013-02-24 08:55:00,
2013-02-24 04:00:00,42.8,36.4,29.81,WNW,288,0.0,7.0,78,0.00,,---,0.00,VWS V14.01,2013-02-24 09:00:00,
2013-02-24 04:05:00,42.6,36.2,29.81,West,264,1.0,8.0,78,0.00,,---,0.00,VWS V14.01,2013-02-24 09:05:00,
2013-02-24 04:10:00,42.5,35.8,29.81,WNW,299,5.0,8.0,77,0.00,,---,0.00,VWS V14.01,2013-02-24 09:10:00,
2013-02-24 04:15:00,42.3,35.9,29.81,WNW,285,3.0,6.0,78,0.00,,---,0.00,VWS V14.01,2013-02-24 09:15:00,
2013-02-24 04:20:00,42.2,35.8,29.82,West,281,3.0,7.0,78,0.00,,---,0.00,VWS V14.01,2013-02-24 09:20:00,
2013-02-24 04:25:00,41.9,35.5,29.82,WNW,289,1.0,5.0,78,0.00,,---,0.00,VWS V14.01,2013-02-24 09:25:00,
2013-02-24 04:30:00,41.8,35.1,29.82,WNW,299,0.0,5.0,77,0.00,,---,0.00,VWS V14.01,2013-02-24 09:30:00,
2013-02-24 04:35:00,41.6,34.9,29.83,WNW,298,0.0,2.0,77,0.00,,---,0.00,VWS V14.01,2013-02-24 09:35:00,
2013-02-24 04:40:00,41.5,34.8,29.83,WSW,258,0.0,4.0,77,0.00,,---,0.00,VWS V14.01,2013-02-24 09:40:00,
2013-02-24 04:45:00,41.2,34.5,29.83,WNW,286,0.0,0.0,77,0.00,,---,0.00,VWS V14.01,2013-02-24 09:45:00,
2013-02-24 04:50:00,41.1,34.5,29.84,WNW,298,1.0,3.0,77,0.00,,---,0.00,VWS V14.01,2013-02-24 09:50:00,
2013-02-24 04:55:00,40.9,34.3,29.84,WNW,292,3.0,6.0,77,0.00,,---,0.00,VWS V14.01,2013-02-24 09:55:00,
2013-02-24 05:00:00,40.8,33.8,29.84,West,275,3.0,6.0,76,0.00,,---,0.00,VWS V14.01,2013-02-24 10:00:00,
2013-02-24 05:05:00,40.6,33.6,29.83,WNW,302,0.0,5.0,76,0.00,,---,0.00,VWS V14.01,2013-02-24 10:05:00,
2013-02-24 05:10:00,40.5,33.5,29.83,NW,322,5.0,8.0,76,0.00,,---,0.00,VWS V14.01,2013-02-24 10:10:00,
2013-02-24 05:15:00,40.3,33.3,29.83,West,271,0.0,7.0,76,0.00,,---,0.00,VWS V14.01,2013-02-24 10:15:00,
2013-02-24 05:20:00,40.2,33.2,29.84,WNW,283,0.0,7.0,76,0.00,,---,0.00,VWS V14.01,2013-02-24 10:20:00,
2013-02-24 05:25:00,40.1,33.2,29.84,West,276,0.0,5.0,76,0.00,,---,0.00,VWS V14.01,2013-02-24 10:25:00,
2013-02-24 05:30:00,39.9,33.0,29.84,WNW,295,2.0,6.0,76,0.00,,---,0.00,VWS V14.01,2013-02-24 10:30:00,
2013-02-24 05:35:00,39.9,33.0,29.84,WNW,298,0.0,7.0,76,0.00,,---,0.00,VWS V14.01,2013-02-24 10:35:00,
2013-02-24 05:40:00,39.8,32.9,29.84,NNW,330,0.0,7.0,76,0.00,,---,0.00,VWS V14.01,2013-02-24 10:40:00,
2013-02-24 05:45:00,39.6,32.7,29.84,West,278,3.0,6.0,76,0.00,,---,0.00,VWS V14.01,2013-02-24 10:45:00,
2013-02-24 05:50:00,39.5,32.6,29.85,WNW,300,0.0,6.0,76,0.00,,---,0.00,VWS V14.01,2013-02-24 10:50:00,
2013-02-24 05:55:00,39.5,32.9,29.85,NW,305,0.0,5.0,77,0.00,,---,0.00,VWS V14.01,2013-02-24 10:55:00,
2013-02-24 06:00:00,39.3,32.7,29.85,SW,217,3.0,6.0,77,0.00,,---,0.00,VWS V14.01,2013-02-24 11:00:00,
2013-02-24 06:05:00,39.2,32.6,29.86,West,274,0.0,0.0,77,0.00,,---,0.00,VWS V14.01,2013-02-24 11:05:00,
2013-02-24 06:10:00,39.1,32.5,29.86,West,272,0.0,5.0,77,0.00,,---,0.00,VWS V14.01,2013-02-24 11:10:00,
2013-02-24 06:15:00,38.9,32.3,29.86,WNW,290,0.0,3.0,77,0.00,,---,0.00,VWS V14.01,2013-02-24 11:15:00,
2013-02-24 06:20:00,38.8,32.2,29.87,WSW,241,1.0,3.0,77,0.00,,---,0.00,VWS V14.01,2013-02-24 11:20:00,
2013-02-24 06:25:00,38.6,32.0,29.87,WNW,295,3.0,3.0,77,0.00,,---,0.00,VWS V14.01,2013-02-24 11:25:00,
2013-02-24 06:30:00,38.5,31.9,29.87,WNW,290,3.0,6.0,77,0.00,,---,0.00,VWS V14.01,2013-02-24 11:30:00,
2013-02-24 06:35:00,38.3,31.7,29.88,WSW,258,3.0,5.0,77,0.00,,---,0.00,VWS V14.01,2013-02-24 11:35:00,
2013-02-24 06:40:00,38.3,31.7,29.88,WNW,299,0.0,6.0,77,0.00,,---,0.00,VWS V14.01,2013-02-24 11:40:00,
2013-02-24 06:45:00,38.2,31.6,29.88,WSW,257,0.0,8.0,77,0.00,,---,0.00,VWS V14.01,2013-02-24 11:45:00,
2013-02-24 06:50:00,38.2,31.6,29.89,West,266,0.0,8.0,77,0.00,,---,0.00,VWS V14.01,2013-02-24 11:50:00,
2013-02-24 06:55:00,38.0,31.4,29.89,SW,233,6.0,6.0,77,0.00,,---,0.00,VWS V14.01,2013-02-24 11:55:00,
2013-02-24 07:00:00,38.0,31.1,29.89,West,264,0.0,11.0,76,0.00,,---,0.00,VWS V14.01,2013-02-24 12:00:00,
2013-02-24 07:05:00,38.0,31.1,29.89,West,259,5.0,8.0,76,0.00,,---,0.00,VWS V14.01,2013-02-24 12:05:00,
2013-02-24 07:10:00,38.0,31.1,29.89,NW,314,0.0,8.0,76,0.00,,---,0.00,VWS V14.01,2013-02-24 12:10:00,
2013-02-24 07:15:00,37.9,31.0,29.89,WNW,303,0.0,3.0,76,0.00,,---,0.00,VWS V14.01,2013-02-24 12:15:00,
2013-02-24 07:20:00,37.8,30.9,29.89,WNW,293,2.0,11.0,76,0.01,,---,0.01,VWS V14.01,2013-02-24 12:20:00,
2013-02-24 07:25:00,37.8,30.9,29.89,NW,312,3.0,8.0,76,0.01,,---,0.01,VWS V14.01,2013-02-24 12:25:00,
2013-02-24 07:30:00,37.8,30.6,29.89,WNW,295,2.0,10.0,75,0.01,,---,0.01,VWS V14.01,2013-02-24 12:30:00,
2013-02-24 07:35:00,37.6,30.7,29.91,NW,316,12.0,12.0,76,0.01,,---,0.01,VWS V14.01,2013-02-24 12:35:00,
2013-02-24 07:40:00,37.8,30.6,29.91,WSW,255,3.0,14.0,75,0.01,,---,0.01,VWS V14.01,2013-02-24 12:40:00,
2013-02-24 07:45:00,37.8,30.6,29.91,West,265,1.0,8.0,75,0.01,,---,0.01,VWS V14.01,2013-02-24 12:45:00,
2013-02-24 07:50:00,37.8,30.6,29.91,West,274,0.0,8.0,75,0.01,,---,0.01,VWS V14.01,2013-02-24 12:50:00,
2013-02-24 07:55:00,37.8,30.6,29.91,WSW,237,1.0,7.0,75,0.01,,---,0.01,VWS V14.01,2013-02-24 12:55:00,
2013-02-24 08:00:00,37.9,30.7,29.91,WNW,299,0.0,8.0,75,0.01,,---,0.01,VWS V14.01,2013-02-24 13:00:00,
2013-02-24 08:05:00,37.9,30.7,29.92,WNW,298,0.0,3.0,75,0.01,,---,0.01,VWS V14.01,2013-02-24 13:05:00,
2013-02-24 08:10:00,38.0,30.5,29.92,WSW,250,3.0,4.0,74,0.01,,---,0.01,VWS V14.01,2013-02-24 13:10:00,
2013-02-24 08:15:00,38.2,30.7,29.92,SW,228,5.0,7.0,74,0.01,,---,0.01,VWS V14.01,2013-02-24 13:15:00,
2013-02-24 08:20:00,38.3,30.4,29.93,West,272,0.0,7.0,73,0.01,,---,0.01,VWS V14.01,2013-02-24 13:20:00,
2013-02-24 08:25:00,38.3,30.1,29.93,WNW,285,5.0,7.0,72,0.00,,---,0.01,VWS V14.01,2013-02-24 13:25:00,
2013-02-24 08:30:00,38.5,30.3,29.93,WSW,254,2.0,7.0,72,0.00,,---,0.01,VWS V14.01,2013-02-24 13:30:00,
2013-02-24 08:35:00,38.8,30.6,29.93,WSW,244,2.0,2.0,72,0.00,,---,0.01,VWS V14.01,2013-02-24 13:35:00,
2013-02-24 08:40:00,38.9,30.3,29.93,WNW,283,5.0,6.0,71,0.00,,---,0.01,VWS V14.01,2013-02-24 13:40:00,
2013-02-24 08:45:00,39.1,30.2,29.93,WSW,248,7.0,7.0,70,0.00,,---,0.01,VWS V14.01,2013-02-24 13:45:00,
2013-02-24 08:50:00,39.2,29.9,29.94,WSW,242,5.0,7.0,69,0.00,,---,0.01,VWS V14.01,2013-02-24 13:50:00,
2013-02-24 08:55:00,39.2,29.9,29.94,WSW,242,5.0,7.0,69,0.00,,---,0.01,VWS V14.01,2013-02-24 13:55:00,
2013-02-24 09:00:00,39.3,30.0,29.94,WSW,244,5.0,8.0,69,0.00,,---,0.01,VWS V14.01,2013-02-24 14:00:00,
2013-02-24 09:05:00,39.5,30.2,29.94,WSW,248,7.0,7.0,69,0.00,,---,0.01,VWS V14.01,2013-02-24 14:05:00,
2013-02-24 09:10:00,39.5,29.5,29.94,West,281,9.0,11.0,67,0.00,,---,0.01,VWS V14.01,2013-02-24 14:10:00,
2013-02-24 09:15:00,39.6,29.6,29.94,WSW,252,5.0,6.0,67,0.00,,---,0.01,VWS V14.01,2013-02-24 14:15:00,
2013-02-24 09:20:00,39.9,29.5,29.93,West,276,4.0,9.0,66,0.00,,---,0.01,VWS V14.01,2013-02-24 14:20:00,
2013-02-24 09:25:00,40.1,29.3,29.93,WSW,254,2.0,10.0,65,0.00,,---,0.01,VWS V14.01,2013-02-24 14:25:00,
2013-02-24 09:30:00,40.2,29.4,29.93,WSW,245,5.0,10.0,65,0.00,,---,0.01,VWS V14.01,2013-02-24 14:30:00,
2013-02-24 09:35:00,40.3,28.7,29.93,WSW,241,6.0,6.0,63,0.00,,---,0.01,VWS V14.01,2013-02-24 14:35:00,
2013-02-24 09:40:00,40.6,29.0,29.93,WSW,244,5.0,8.0,63,0.00,,---,0.01,VWS V14.01,2013-02-24 14:40:00,
2013-02-24 09:45:00,40.9,28.9,29.93,West,264,4.0,10.0,62,0.00,,---,0.01,VWS V14.01,2013-02-24 14:45:00,
2013-02-24 09:50:00,41.2,29.6,29.93,West,268,10.0,10.0,63,0.00,,---,0.01,VWS V14.01,2013-02-24 14:50:00,
2013-02-24 09:55:00,41.5,29.5,29.93,WSW,247,6.0,7.0,62,0.00,,---,0.01,VWS V14.01,2013-02-24 14:55:00,
2013-02-24 10:00:00,41.6,29.2,29.93,WSW,245,6.0,7.0,61,0.00,,---,0.01,VWS V14.01,2013-02-24 15:00:00,
2013-02-24 10:05:00,42.1,29.6,29.93,WSW,250,6.0,7.0,61,0.00,,---,0.01,VWS V14.01,2013-02-24 15:05:00,
2013-02-24 10:10:00,42.3,28.6,29.93,WSW,238,7.0,10.0,58,0.00,,---,0.01,VWS V14.01,2013-02-24 15:10:00,
2013-02-24 10:15:00,42.6,28.0,29.93,WSW,245,5.0,8.0,56,0.00,,---,0.01,VWS V14.01,2013-02-24 15:15:00,
2013-02-24 10:20:00,42.9,28.3,29.94,West,259,6.0,11.0,56,0.00,,---,0.01,VWS V14.01,2013-02-24 15:20:00,
2013-02-24 10:25:00,43.1,28.9,29.94,SW,235,5.0,10.0,57,0.00,,---,0.01,VWS V14.01,2013-02-24 15:25:00,
2013-02-24 10:30:00,43.3,28.7,29.94,WSW,248,6.0,10.0,56,0.00,,---,0.01,VWS V14.01,2013-02-24 15:30:00,
2013-02-24 10:35:00,43.5,28.9,29.94,West,261,2.0,7.0,56,0.00,,---,0.01,VWS V14.01,2013-02-24 15:35:00,
2013-02-24 10:40:00,43.8,28.7,29.94,WNW,289,5.0,8.0,55,0.00,,---,0.01,VWS V14.01,2013-02-24 15:40:00,
2013-02-24 10:45:00,44.1,29.0,29.94,West,275,2.0,7.0,55,0.00,,---,0.01,VWS V14.01,2013-02-24 15:45:00,
2013-02-24 10:50:00,44.3,29.6,29.94,WSW,248,6.0,9.0,56,0.00,,---,0.01,VWS V14.01,2013-02-24 15:50:00,
2013-02-24 10:55:00,44.6,28.5,29.94,SW,233,3.0,9.0,53,0.00,,---,0.01,VWS V14.01,2013-02-24 15:55:00,
2013-02-24 11:00:00,44.9,28.8,29.94,WSW,247,5.0,9.0,53,0.00,,---,0.01,VWS V14.01,2013-02-24 16:00:00,
2013-02-24 11:05:00,45.2,28.2,29.94,West,268,11.0,11.0,51,0.00,,---,0.01,VWS V14.01,2013-02-24 16:05:00,
2013-02-24 11:10:00,45.5,30.3,29.94,WSW,252,3.0,12.0,55,0.00,,---,0.01,VWS V14.01,2013-02-24 16:10:00,
2013-02-24 11:15:00,45.8,28.2,29.94,WSW,241,6.0,7.0,50,0.00,,---,0.01,VWS V14.01,2013-02-24 16:15:00,
2013-02-24 11:20:00,46.1,28.5,29.95,WNW,282,3.0,7.0,50,0.00,,---,0.01,VWS V14.01,2013-02-24 16:20:00,
2013-02-24 11:25:00,46.5,27.4,29.95,WSW,240,3.0,7.0,47,0.00,,---,0.01,VWS V14.01,2013-02-24 16:25:00,
2013-02-24 11:30:00,47.0,28.9,29.95,West,276,6.0,8.0,49,0.00,,---,0.01,VWS V14.01,2013-02-24 16:30:00,
2013-02-24 11:35:00,47.1,28.4,29.94,SW,220,5.0,7.0,48,0.00,,---,0.01,VWS V14.01,2013-02-24 16:35:00,
2013-02-24 11:40:00,47.6,29.4,29.94,WSW,242,2.0,7.0,49,0.00,,---,0.01,VWS V14.01,2013-02-24 16:40:00,
2013-02-24 11:45:00,48.0,27.7,29.94,WSW,238,1.0,7.0,45,0.00,,---,0.01,VWS V14.01,2013-02-24 16:45:00,
2013-02-24 11:50:00,48.2,27.9,29.94,WSW,252,5.0,8.0,45,0.00,,---,0.01,VWS V14.01,2013-02-24 16:50:00,
2013-02-24 11:55:00,48.6,28.2,29.94,West,259,4.0,7.0,45,0.00,,---,0.01,VWS V14.01,2013-02-24 16:55:00,
2013-02-24 12:00:00,49.1,27.6,29.94,WSW,254,3.0,10.0,43,0.00,,---,0.01,VWS V14.01,2013-02-24 17:00:00,
2013-02-24 12:05:00,49.5,26.8,29.94,WSW,251,5.0,7.0,41,0.00,,---,0.01,VWS V14.01,2013-02-24 17:05:00,
2013-02-24 12:10:00,49.8,27.1,29.94,WSW,247,6.0,8.0,41,0.00,,---,0.01,VWS V14.01,2013-02-24 17:10:00,
2013-02-24 12:15:00,50.1,26.1,29.94,West,268,5.0,8.0,39,0.00,,---,0.01,VWS V14.01,2013-02-24 17:15:00,
2013-02-24 12:20:00,50.1,24.2,29.93,SSW,200,8.0,16.0,36,0.00,,---,0.01,VWS V14.01,2013-02-24 17:20:00,
2013-02-24 12:25:00,50.1,24.9,29.93,WSW,241,6.0,10.0,37,0.00,,---,0.01,VWS V14.01,2013-02-24 17:25:00,
2013-02-24 12:30:00,50.5,23.9,29.93,SW,216,6.0,10.0,35,0.00,,---,0.01,VWS V14.01,2013-02-24 17:30:00,
2013-02-24 12:35:00,50.8,24.1,29.92,West,272,5.0,12.0,35,0.00,,---,0.01,VWS V14.01,2013-02-24 17:35:00,
2013-02-24 12:40:00,50.8,24.8,29.92,WSW,242,6.0,16.0,36,0.00,,---,0.01,VWS V14.01,2013-02-24 17:40:00,
2013-02-24 12:45:00,51.3,26.6,29.92,WSW,237,7.0,8.0,38,0.00,,---,0.01,VWS V14.01,2013-02-24 17:45:00,
2013-02-24 12:50:00,51.6,23.5,29.92,West,262,6.0,12.0,33,0.00,,---,0.01,VWS V14.01,2013-02-24 17:50:00,
2013-02-24 12:55:00,51.6,22.7,29.92,SSW,204,5.0,8.0,32,0.00,,---,0.01,VWS V14.01,2013-02-24 17:55:00,
2013-02-24 13:00:00,51.6,22.0,29.92,WSW,252,7.0,12.0,31,0.00,,---,0.01,VWS V14.01,2013-02-24 18:00:00,
2013-02-24 13:05:00,51.7,23.5,29.92,WSW,254,5.0,8.0,33,0.00,,---,0.01,VWS V14.01,2013-02-24 18:05:00,
2013-02-24 13:10:00,52.0,23.1,29.92,SW,233,7.0,11.0,32,0.00,,---,0.01,VWS V14.01,2013-02-24 18:10:00,
2013-02-24 13:15:00,52.2,22.5,29.92,WSW,248,5.0,8.0,31,0.00,,---,0.01,VWS V14.01,2013-02-24 18:15:00,
2013-02-24 13:20:00,52.3,22.6,29.91,NW,305,10.0,13.0,31,0.00,,---,0.01,VWS V14.01,2013-02-24 18:20:00,
2013-02-24 13:25:00,52.3,21.8,29.91,West,265,7.0,12.0,30,0.00,,---,0.01,VWS V14.01,2013-02-24 18:25:00,
2013-02-24 13:30:00,52.3,21.8,29.91,West,259,8.0,12.0,30,0.00,,---,0.01,VWS V14.01,2013-02-24 18:30:00,
2013-02-24 13:35:00,52.3,21.0,29.91,WSW,242,6.0,9.0,29,0.00,,---,0.01,VWS V14.01,2013-02-24 18:35:00,
2013-02-24 13:40:00,52.5,20.4,29.91,SSW,199,11.0,11.0,28,0.00,,---,0.01,VWS V14.01,2013-02-24 18:40:00,
2013-02-24 13:45:00,52.5,21.2,29.91,SW,233,7.0,10.0,29,0.00,,---,0.01,VWS V14.01,2013-02-24 18:45:00,
2013-02-24 13:50:00,52.6,21.3,29.91,WSW,251,9.0,12.0,29,0.00,,---,0.01,VWS V14.01,2013-02-24 18:50:00,
2013-02-24 13:55:00,52.6,21.3,29.91,West,259,7.0,13.0,29,0.00,,---,0.01,VWS V14.01,2013-02-24 18:55:00,
2013-02-24 14:00:00,52.8,21.4,29.91,WSW,257,1.0,13.0,29,0.00,,---,0.01,VWS V14.01,2013-02-24 19:00:00,
2013-02-24 14:05:00,52.8,22.2,29.90,WSW,238,6.0,8.0,30,0.00,,---,0.01,VWS V14.01,2013-02-24 19:05:00,
2013-02-24 14:10:00,52.6,20.4,29.90,West,262,13.0,13.0,28,0.00,,---,0.01,VWS V14.01,2013-02-24 19:10:00,
2013-02-24 14:15:00,52.3,19.3,29.90,SW,231,11.0,11.0,27,0.00,,---,0.01,VWS V14.01,2013-02-24 19:15:00,
2013-02-24 14:20:00,52.5,20.4,29.91,WNW,290,5.0,12.0,28,0.00,,---,0.01,VWS V14.01,2013-02-24 19:20:00,
2013-02-24 14:25:00,52.6,20.4,29.91,WSW,242,6.0,8.0,28,0.00,,---,0.01,VWS V14.01,2013-02-24 19:25:00,
2013-02-24 14:30:00,52.9,20.7,29.91,SW,226,5.0,11.0,28,0.00,,---,0.01,VWS V14.01,2013-02-24 19:30:00,
2013-02-24 14:35:00,53.2,20.1,29.90,North,353,6.0,9.0,27,0.00,,---,0.01,VWS V14.01,2013-02-24 19:35:00,
2013-02-24 14:40:00,53.2,20.1,29.90,West,271,4.0,12.0,27,0.00,,---,0.01,VWS V14.01,2013-02-24 19:40:00,
2013-02-24 14:45:00,53.5,20.4,29.90,WNW,298,0.0,7.0,27,0.00,,---,0.01,VWS V14.01,2013-02-24 19:45:00,
2013-02-24 14:50:00,53.6,20.5,29.89,WNW,295,12.0,12.0,27,0.00,,---,0.01,VWS V14.01,2013-02-24 19:50:00,
2013-02-24 14:55:00,53.5,20.4,29.89,West,268,5.0,10.0,27,0.01,,---,0.02,VWS V14.01,2013-02-24 19:55:00,
2013-02-24 15:00:00,53.3,20.2,29.89,WNW,300,10.0,13.0,27,0.01,,---,0.02,VWS V14.01,2013-02-24 20:00:00,
2013-02-24 15:05:00,53.5,20.4,29.91,WNW,285,8.0,11.0,27,0.01,,---,0.02,VWS V14.01,2013-02-24 20:05:00,
2013-02-24 15:10:00,53.6,20.5,29.91,WNW,285,6.0,11.0,27,0.01,,---,0.02,VWS V14.01,2013-02-24 20:10:00,
2013-02-24 15:15:00,53.6,19.6,29.91,WSW,242,6.0,6.0,26,0.01,,---,0.02,VWS V14.01,2013-02-24 20:15:00,
2013-02-24 15:20:00,53.8,20.6,29.91,West,275,6.0,10.0,27,0.01,,---,0.02,VWS V14.01,2013-02-24 20:20:00,
2013-02-24 15:25:00,53.9,20.7,29.91,West,275,2.0,7.0,27,0.01,,---,0.02,VWS V14.01,2013-02-24 20:25:00,
2013-02-24 15:30:00,53.8,19.7,29.91,NNW,334,0.0,12.0,26,0.01,,---,0.02,VWS V14.01,2013-02-24 20:30:00,
2013-02-24 15:35:00,53.5,19.5,29.91,NNW,343,3.0,11.0,26,0.01,,---,0.02,VWS V14.01,2013-02-24 20:35:00,
2013-02-24 15:40:00,53.3,20.2,29.91,West,265,5.0,13.0,27,0.01,,---,0.02,VWS V14.01,2013-02-24 20:40:00,
2013-02-24 15:45:00,53.3,20.2,29.91,West,262,3.0,14.0,27,0.01,,---,0.02,VWS V14.01,2013-02-24 20:45:00,
2013-02-24 15:50:00,53.2,20.1,29.91,WNW,286,6.0,14.0,27,0.01,,---,0.02,VWS V14.01,2013-02-24 20:50:00,
2013-02-24 15:55:00,53.2,19.2,29.91,NW,317,6.0,12.0,26,0.00,,---,0.02,VWS V14.01,2013-02-24 20:55:00,
2013-02-24 16:00:00,53.1,19.1,29.91,West,274,0.0,12.0,26,0.00,,---,0.02,VWS V14.01,2013-02-24 21:00:00,
2013-02-24 16:05:00,53.1,19.1,29.91,WSW,254,5.0,12.0,26,0.00,,---,0.02,VWS V14.01,2013-02-24 21:05:00,
2013-02-24 16:10:00,52.9,19.9,29.91,West,272,6.0,12.0,27,0.00,,---,0.02,VWS V14.01,2013-02-24 21:10:00,
2013-02-24 16:15:00,52.8,20.6,29.91,NNW,329,7.0,11.0,28,0.00,,---,0.02,VWS V14.01,2013-02-24 21:15:00,
2013-02-24 16:20:00,52.6,19.6,29.91,WNW,292,2.0,12.0,27,0.00,,---,0.02,VWS V14.01,2013-02-24 21:20:00,
2013-02-24 16:25:00,52.5,19.5,29.91,WNW,303,5.0,10.0,27,0.00,,---,0.02,VWS V14.01,2013-02-24 21:25:00,
2013-02-24 16:30:00,52.5,21.2,29.91,West,279,0.0,10.0,29,0.00,,---,0.02,VWS V14.01,2013-02-24 21:30:00,
2013-02-24 16:35:00,52.5,19.5,29.91,West,266,3.0,8.0,27,0.00,,---,0.02,VWS V14.01,2013-02-24 21:35:00,
2013-02-24 16:40:00,52.5,20.4,29.91,WNW,283,7.0,11.0,28,0.00,,---,0.02,VWS V14.01,2013-02-24 21:40:00,
2013-02-24 16:45:00,52.3,20.2,29.91,WSW,252,3.0,7.0,28,0.00,,---,0.02,VWS V14.01,2013-02-24 21:45:00,
2013-02-24 16:50:00,52.3,20.2,29.91,WSW,240,6.0,8.0,28,0.00,,---,0.02,VWS V14.01,2013-02-24 21:50:00,
2013-02-24 16:55:00,52.2,20.1,29.91,West,262,3.0,3.0,28,0.00,,---,0.02,VWS V14.01,2013-02-24 21:55:00,
2013-02-24 17:00:00,52.2,20.1,29.91,WSW,252,6.0,13.0,28,0.00,,---,0.02,VWS V14.01,2013-02-24 22:00:00,
2013-02-24 17:05:00,51.9,19.8,29.92,West,264,0.0,6.0,28,0.00,,---,0.02,VWS V14.01,2013-02-24 22:05:00,
2013-02-24 17:10:00,51.7,20.5,29.92,West,268,2.0,8.0,29,0.00,,---,0.02,VWS V14.01,2013-02-24 22:10:00,
2013-02-24 17:15:00,51.6,19.6,29.92,SW,233,3.0,7.0,28,0.00,,---,0.02,VWS V14.01,2013-02-24 22:15:00,
2013-02-24 17:20:00,51.4,20.2,29.92,West,278,4.0,7.0,29,0.00,,---,0.02,VWS V14.01,2013-02-24 22:20:00,
2013-02-24 17:25:00,51.3,19.3,29.92,West,279,3.0,6.0,28,0.00,,---,0.02,VWS V14.01,2013-02-24 22:25:00,
2013-02-24 17:30:00,51.1,19.1,29.92,West,274,7.0,12.0,28,0.00,,---,0.02,VWS V14.01,2013-02-24 22:30:00,
2013-02-24 17:35:00,51.0,19.1,29.93,West,278,0.0,3.0,28,0.00,,---,0.02,VWS V14.01,2013-02-24 22:35:00,
2013-02-24 17:40:00,50.7,20.4,29.93,WSW,248,4.0,9.0,30,0.00,,---,0.02,VWS V14.01,2013-02-24 22:40:00,
2013-02-24 17:45:00,50.5,19.5,29.93,WSW,242,6.0,7.0,29,0.00,,---,0.02,VWS V14.01,2013-02-24 22:45:00,
2013-02-24 17:50:00,50.4,20.1,29.93,West,281,0.0,10.0,30,0.00,,---,0.02,VWS V14.01,2013-02-24 22:50:00,
2013-02-24 17:55:00,50.2,20.0,29.93,WNW,282,2.0,6.0,30,0.00,,---,0.02,VWS V14.01,2013-02-24 22:55:00,
2013-02-24 18:00:00,49.9,18.1,29.93,West,279,5.0,10.0,28,0.00,,---,0.02,VWS V14.01,2013-02-24 23:00:00,
2013-02-24 18:05:00,49.8,18.0,29.94,West,269,5.0,11.0,28,0.00,,---,0.02,VWS V14.01,2013-02-24 23:05:00,
2013-02-24 18:10:00,49.4,17.7,29.94,West,275,12.0,13.0,28,0.00,,---,0.02,VWS V14.01,2013-02-24 23:10:00,
2013-02-24 18:15:00,49.1,16.6,29.94,West,261,20.0,20.0,27,0.00,,---,0.02,VWS V14.01,2013-02-24 23:15:00,
2013-02-24 18:20:00,48.6,17.8,29.94,SW,235,5.0,20.0,29,0.00,,---,0.02,VWS V14.01,2013-02-24 23:20:00,
2013-02-24 18:25:00,48.3,16.7,29.94,WNW,296,6.0,13.0,28,0.00,,---,0.02,VWS V14.01,2013-02-24 23:25:00,
2013-02-24 18:30:00,48.2,16.6,29.94,WNW,288,2.0,15.0,28,0.00,,---,0.02,VWS V14.01,2013-02-24 23:30:00,
2013-02-24 18:35:00,48.0,16.5,29.95,West,266,8.0,13.0,28,0.00,,---,0.02,VWS V14.01,2013-02-24 23:35:00,
2013-02-24 18:40:00,47.9,16.4,29.95,WNW,282,10.0,14.0,28,0.00,,---,0.02,VWS V14.01,2013-02-24 23:40:00,
2013-02-24 18:45:00,47.7,17.8,29.95,WSW,245,0.0,7.0,30,0.00,,---,0.02,VWS V14.01,2013-02-24 23:45:00,
2013-02-24 18:50:00,47.4,17.5,29.96,WNW,292,0.0,7.0,30,0.00,,---,0.02,VWS V14.01,2013-02-24 23:50:00,
2013-02-24 18:55:00,47.3,15.9,29.96,WSW,240,1.0,10.0,28,0.00,,---,0.02,VWS V14.01,2013-02-24 23:55:00,
2013-02-24 19:00:00,47.3,15.9,29.96,East,101,0.0,10.0,28,0.00,,---,0.02,VWS V14.01,2013-02-25 00:00:00,
2013-02-24 19:05:00,47.1,15.7,29.98,NNE,18,12.0,12.0,28,0.00,,---,0.02,VWS V14.01,2013-02-25 00:05:00,
2013-02-24 19:10:00,47.1,16.5,29.98,West,275,13.0,13.0,29,0.00,,---,0.02,VWS V14.01,2013-02-25 00:10:00,
2013-02-24 19:15:00,47.0,15.6,29.98,NW,310,7.0,13.0,28,0.00,,---,0.02,VWS V14.01,2013-02-25 00:15:00,
2013-02-24 19:20:00,47.0,16.4,29.99,NNW,341,0.0,13.0,29,0.00,,---,0.02,VWS V14.01,2013-02-25 00:20:00,
2013-02-24 19:25:00,47.0,15.6,29.99,NNE,14,0.0,0.0,28,0.00,,---,0.02,VWS V14.01,2013-02-25 00:25:00,
2013-02-24 19:30:00,46.8,17.8,29.99,NNE,14,0.0,0.0,31,0.00,,---,0.02,VWS V14.01,2013-02-25 00:30:00,
2013-02-24 19:35:00,46.5,16.8,29.99,WNW,293,0.0,0.0,30,0.00,,---,0.02,VWS V14.01,2013-02-25 00:35:00,
2013-02-24 19:40:00,46.2,17.2,29.99,WNW,293,0.0,0.0,31,0.00,,---,0.02,VWS V14.01,2013-02-25 00:40:00,
2013-02-24 19:45:00,46.1,18.6,29.99,WNW,293,0.0,0.0,33,0.00,,---,0.02,VWS V14.01,2013-02-25 00:45:00,
2013-02-24 19:50:00,45.8,19.0,30.00,WNW,293,0.0,0.0,34,0.00,,---,0.02,VWS V14.01,2013-02-25 00:50:00,
2013-02-24 19:55:00,45.4,20.0,30.00,WNW,293,0.0,0.0,36,0.00,,---,0.02,VWS V14.01,2013-02-25 00:55:00,
2013-02-24 20:00:00,44.6,18.7,30.00,WNW,293,0.0,0.0,35,0.00,,---,0.02,VWS V14.01,2013-02-25 01:00:00,
2013-02-24 20:05:00,44.2,21.4,30.01,NNW,346,0.0,1.0,40,0.00,,---,0.02,VWS V14.01,2013-02-25 01:05:00,
2013-02-24 20:10:00,43.5,20.8,30.01,NNW,346,0.0,1.0,40,0.00,,---,0.02,VWS V14.01,2013-02-25 01:10:00,
2013-02-24 20:15:00,42.8,18.4,30.01,NNW,346,0.0,0.0,37,0.00,,---,0.02,VWS V14.01,2013-02-25 01:15:00,
2013-02-24 20:20:00,42.2,21.9,30.01,NNW,346,0.0,3.0,44,0.00,,---,0.02,VWS V14.01,2013-02-25 01:20:00,
2013-02-24 20:25:00,41.5,20.1,30.01,NNW,346,0.0,0.0,42,0.00,,---,0.02,VWS V14.01,2013-02-25 01:25:00,
2013-02-24 20:30:00,41.2,19.3,30.01,NNW,346,0.0,0.0,41,0.00,,---,0.02,VWS V14.01,2013-02-25 01:30:00,
2013-02-24 20:35:00,40.9,19.6,30.02,NNW,346,2.0,2.0,42,0.00,,---,0.02,VWS V14.01,2013-02-25 01:35:00,
2013-02-24 20:40:00,40.6,20.9,30.02,NNW,346,0.0,3.0,45,0.00,,---,0.02,VWS V14.01,2013-02-25 01:40:00,
2013-02-24 20:45:00,40.3,18.5,30.02,NNW,344,6.0,6.0,41,0.00,,---,0.02,VWS V14.01,2013-02-25 01:45:00,
2013-02-24 20:50:00,40.3,18.5,30.02,SSW,200,0.0,6.0,41,0.00,,---,0.02,VWS V14.01,2013-02-25 01:50:00,
2013-02-24 20:55:00,40.3,18.5,30.02,SSW,200,0.0,0.0,41,0.00,,---,0.02,VWS V14.01,2013-02-25 01:55:00,
2013-02-24 21:00:00,40.3,17.3,30.02,SSW,200,0.0,0.0,39,0.00,,---,0.02,VWS V14.01,2013-02-25 02:00:00,
2013-02-24 21:05:00,40.2,19.5,30.02,NNW,331,0.0,2.0,43,0.00,,---,0.02,VWS V14.01,2013-02-25 02:05:00,
2013-02-24 21:10:00,40.1,18.3,30.02,NNW,331,0.0,2.0,41,0.00,,---,0.02,VWS V14.01,2013-02-25 02:10:00,
2013-02-24 21:15:00,39.9,17.5,30.02,NNW,331,0.0,0.0,40,0.00,,---,0.02,VWS V14.01,2013-02-25 02:15:00,
2013-02-24 21:20:00,39.9,19.2,30.01,NNW,330,0.0,1.0,43,0.00,,---,0.02,VWS V14.01,2013-02-25 02:20:00,
2013-02-24 21:25:00,39.6,18.4,30.01,NNW,330,0.0,0.0,42,0.00,,---,0.02,VWS V14.01,2013-02-25 02:25:00,
2013-02-24 21:30:00,39.5,17.8,30.01,NNW,330,0.0,0.0,41,0.00,,---,0.02,VWS V14.01,2013-02-25 02:30:00,
2013-02-24 21:35:00,39.2,19.1,30.03,NNW,330,0.0,0.0,44,0.00,,---,0.02,VWS V14.01,2013-02-25 02:35:00,
2013-02-24 21:40:00,39.1,19.6,30.03,NNW,330,0.0,0.0,45,0.00,,---,0.02,VWS V14.01,2013-02-25 02:40:00,
2013-02-24 21:45:00,38.8,18.8,30.03,NNW,330,0.0,0.0,44,0.00,,---,0.02,VWS V14.01,2013-02-25 02:45:00,
2013-02-24 21:50:00,38.5,19.0,30.03,NNW,330,0.0,0.0,45,0.00,,---,0.02,VWS V14.01,2013-02-25 02:50:00,
2013-02-24 21:55:00,38.0,20.1,30.03,NNW,330,0.0,0.0,48,0.00,,---,0.02,VWS V14.01,2013-02-25 02:55:00,
2013-02-24 22:00:00,37.8,20.4,30.03,NNW,330,0.0,0.0,49,0.00,,---,0.02,VWS V14.01,2013-02-25 03:00:00,
2013-02-24 22:05:00,37.5,20.6,30.03,NNW,330,0.0,0.0,50,0.00,,---,0.02,VWS V14.01,2013-02-25 03:05:00,
2013-02-24 22:10:00,36.9,20.0,30.03,NNW,330,0.0,0.0,50,0.00,,---,0.02,VWS V14.01,2013-02-25 03:10:00,
2013-02-24 22:15:00,36.6,20.6,30.03,NNW,330,0.0,0.0,52,0.00,,---,0.02,VWS V14.01,2013-02-25 03:15:00,
2013-02-24 22:20:00,36.3,19.9,30.02,NNW,330,0.0,0.0,51,0.00,,---,0.02,VWS V14.01,2013-02-25 03:20:00,
2013-02-24 22:25:00,36.2,20.3,30.02,NNW,330,0.0,3.0,52,0.00,,---,0.02,VWS V14.01,2013-02-25 03:25:00,
2013-02-24 22:30:00,36.0,20.5,30.02,NNW,330,0.0,3.0,53,0.00,,---,0.02,VWS V14.01,2013-02-25 03:30:00,
2013-02-24 22:35:00,35.9,20.9,30.02,NNW,330,0.0,0.0,54,0.00,,---,0.02,VWS V14.01,2013-02-25 03:35:00,
2013-02-24 22:40:00,35.8,21.2,30.02,NNW,330,0.0,0.0,55,0.00,,---,0.02,VWS V14.01,2013-02-25 03:40:00,
2013-02-24 22:45:00,35.5,21.8,30.02,NNW,330,0.0,0.0,57,0.00,,---,0.02,VWS V14.01,2013-02-25 03:45:00,
2013-02-24 22:50:00,35.2,21.1,30.03,NNW,330,0.0,0.0,56,0.00,,---,0.02,VWS V14.01,2013-02-25 03:50:00,
2013-02-24 22:55:00,35.0,21.7,30.03,NNW,330,0.0,0.0,58,0.00,,---,0.02,VWS V14.01,2013-02-25 03:55:00,
2013-02-24 23:00:00,34.7,21.5,30.03,NNW,330,0.0,0.0,58,0.00,,---,0.02,VWS V14.01,2013-02-25 04:00:00,
2013-02-24 23:05:00,34.4,21.6,30.03,NNW,330,0.0,0.0,59,0.00,,---,0.02,VWS V14.01,2013-02-25 04:05:00,
2013-02-24 23:10:00,34.0,21.6,30.03,NNW,330,0.0,0.0,60,0.00,,---,0.02,VWS V14.01,2013-02-25 04:10:00,
2013-02-24 23:15:00,33.8,21.8,30.03,NNW,330,0.0,0.0,61,0.00,,---,0.02,VWS V14.01,2013-02-25 04:15:00,
2013-02-24 23:20:00,33.5,21.9,30.01,NNW,330,0.0,0.0,62,0.00,,---,0.02,VWS V14.01,2013-02-25 04:20:00,
2013-02-24 23:25:00,33.1,22.3,30.01,NNW,330,0.0,0.0,64,0.00,,---,0.02,VWS V14.01,2013-02-25 04:25:00,
2013-02-24 23:30:00,32.8,22.3,30.01,NNW,330,0.0,0.0,65,0.00,,---,0.02,VWS V14.01,2013-02-25 04:30:00,
2013-02-24 23:35:00,32.4,22.3,30.01,NNW,330,0.0,0.0,66,0.00,,---,0.02,VWS V14.01,2013-02-25 04:35:00,
2013-02-24 23:40:00,32.1,22.0,30.01,NNW,330,0.0,0.0,66,0.00,,---,0.02,VWS V14.01,2013-02-25 04:40:00,
2013-02-24 23:45:00,31.9,21.9,30.01,NNW,330,0.0,0.0,66,0.00,,---,0.02,VWS V14.01,2013-02-25 04:45:00,
2013-02-24 23:50:00,31.8,22.1,30.01,NNW,330,0.0,0.0,67,0.00,,---,0.02,VWS V14.01,2013-02-25 04:50:00,
2013-02-24 23:55:00,31.6,21.9,30.01,NNW,330,0.0,0.0,67,0.00,,---,0.02,VWS V14.01,2013-02-25 04:55:00,